This demonstration page uses our WeatherBlox Daily Observations layout. Learn more.

Left ArrowRight Arrow

Hourly Observations for March 9, 2015

Temp ( °F °C ) Dew Point ( °F °C ) Humidity (%) Winds ( mph kmh ) Pressure ( in mb ) Visibility ( mi km ) Precip ( " mm )
12:15 am 00:15 Clear 34 1 30 -1 87 87 N N/A 30.21 1023 10 16 N/A
12:35 am 00:35 Clear 34 1 32 undefined 93 93 N N/A 30.21 1023 10 16 N/A
12:55 am 00:55 Clear 36 2 32 undefined 87 87 N N/A 30.21 1023 10 16 N/A
1:15 am 01:15 Clear 34 1 30 -1 87 87 N N/A 30.18 1022 10 16 N/A
1:35 am 01:35 Clear 34 1 30 -1 87 87 N N/A 30.18 1022 10 16 N/A
1:55 am 01:55 Clear 34 1 30 -1 87 87 N N/A 30.18 1022 10 16 N/A
2:15 am 02:15 Clear 36 2 32 undefined 87 87 N N/A 30.18 1022 10 16 N/A
2:35 am 02:35 Clear 34 1 32 undefined 93 93 N N/A 30.18 1022 10 16 N/A
2:55 am 02:55 Clear 34 1 32 undefined 93 93 N N/A 30.18 1022 10 16 N/A
3:15 am 03:15 Clear 34 1 32 undefined 93 93 N N/A 30.18 1022 10 16 N/A
3:35 am 03:35 Clear 34 1 32 undefined 93 93 N N/A 30.18 1022 10 16 N/A
3:55 am 03:55 Clear 34 1 32 undefined 93 93 N N/A 30.18 1022 10 16 N/A
4:15 am 04:15 Clear 34 1 32 undefined 93 93 N N/A 30.18 1022 10 16 N/A
4:35 am 04:35 Clear 32 undefined 30 -1 93 93 N N/A 30.18 1022 10 16 N/A
4:55 am 04:55 Clear 32 undefined 32 undefined 100 100 N N/A 30.18 1022 10 16 N/A
5:15 am 05:15 Clear 34 1 32 undefined 93 93 N N/A 30.18 1022 10 16 N/A
5:35 am 05:35 Clear 32 undefined 30 -1 93 93 N N/A 30.18 1022 10 16 N/A
5:55 am 05:55 Clear 34 1 32 undefined 93 93 N N/A 30.18 1022 10 16 N/A
6:15 am 06:15 Clear 32 undefined 30 -1 93 93 N 3 6 30.18 1022 10 16 N/A
6:35 am 06:35 Clear 32 undefined 30 -1 93 93 N N/A 30.21 1023 10 16 N/A
6:55 am 06:55 Clear 34 1 32 undefined 93 93 N N/A 30.21 1023 10 16 N/A
7:15 am 07:15 Clear 32 undefined 30 -1 93 93 N N/A 30.21 1023 10 16 N/A
7:35 am 07:35 Sunny 32 undefined 30 -1 93 93 N 3 6 30.21 1023 10 16 N/A
7:55 am 07:55 Sunny 34 1 30 -1 87 87 N N/A 30.24 1024 10 16 N/A
8:15 am 08:15 Sunny 34 1 32 undefined 93 93 N 3 6 30.24 1024 10 16 N/A
8:35 am 08:35 Sunny 34 1 32 undefined 93 93 N N/A 30.24 1024 10 16 N/A
8:55 am 08:55 Sunny 36 2 32 undefined 87 87 N 5 7 30.24 1024 10 16 N/A
9:15 am 09:15 Sunny 37 3 32 undefined 81 81 N 7 11 30.27 1025 10 16 N/A
9:35 am 09:35 Sunny 41 5 32 undefined 70 70 N 6 9 30.27 1025 10 16 N/A
9:55 am 09:55 Sunny 43 6 32 undefined 66 66 N 6 9 30.27 1025 10 16 N/A
10:15 am 10:15 Sunny 45 7 32 undefined 61 61 N 3 6 30.27 1025 10 16 N/A
10:35 am 10:35 Sunny 46 8 32 undefined 57 57 N 3 6 30.27 1025 10 16 N/A
10:55 am 10:55 Sunny 48 9 32 undefined 54 54 N 3 6 30.27 1025 10 16 N/A
11:15 am 11:15 Sunny 50 10 34 1 54 54 N N/A 30.27 1025 10 16 N/A
11:35 am 11:35 Sunny 50 10 32 undefined 50 50 NNE 3 6 30.27 1025 10 16 N/A
11:55 am 11:55 Sunny 52 11 32 undefined 47 47 N N/A 30.27 1025 10 16 N/A
12:15 pm 12:15 Sunny 52 11 32 undefined 47 47 NNW 3 6 30.27 1025 10 16 N/A
12:35 pm 12:35 Sunny 54 12 32 undefined 44 44 NNW 5 7 30.24 1024 10 16 N/A
12:55 pm 12:55 Sunny 54 12 34 1 47 47 NNW 6 9 30.24 1024 10 16 N/A
1:15 pm 13:15 Sunny 54 12 32 undefined 44 44 N N/A 30.24 1024 10 16 N/A
1:35 pm 13:35 Sunny 55 13 34 1 44 44 N N/A 30.21 1023 10 16 N/A
1:55 pm 13:55 Sunny 55 13 32 undefined 41 41 N N/A 30.21 1023 10 16 N/A
2:15 pm 14:15 Sunny 55 13 34 1 44 44 NNW 3 6 30.21 1023 10 16 N/A
2:35 pm 14:35 Sunny 57 14 34 1 41 41 N N/A 30.18 1022 10 16 N/A
2:55 pm 14:55 Sunny 57 14 34 1 41 41 WSW 3 6 30.18 1022 10 16 N/A
3:15 pm 15:15 Sunny 57 14 34 1 41 41 SW 5 7 30.18 1022 10 16 N/A
3:35 pm 15:35 Sunny 59 15 34 1 39 39 W 5 7 30.18 1022 10 16 N/A
3:55 pm 15:55 Sunny 59 15 34 1 39 39 SSW 6 9 30.18 1022 10 16 N/A
4:15 pm 16:15 Sunny 59 15 34 1 39 39 N N/A 30.18 1022 10 16 N/A
4:35 pm 16:35 Sunny 59 15 34 1 39 39 S 7 11 30.18 1022 10 16 N/A
4:55 pm 16:55 Sunny 59 15 34 1 39 39 S 5 7 30.18 1022 10 16 N/A
5:15 pm 17:15 Sunny 59 15 34 1 39 39 S 6 9 30.18 1022 10 16 N/A
5:35 pm 17:35 Sunny 59 15 34 1 39 39 SSW 3 6 30.18 1022 10 16 N/A
5:55 pm 17:55 Sunny 59 15 36 2 42 42 S 5 7 30.18 1022 10 16 N/A
6:15 pm 18:15 Sunny 59 15 34 1 39 39 N N/A 30.18 1022 10 16 N/A
6:35 pm 18:35 Sunny 59 15 34 1 39 39 N N/A 30.18 1022 10 16 N/A
6:55 pm 18:55 Sunny 59 15 34 1 39 39 N N/A 30.18 1022 10 16 N/A
7:15 pm 19:15 Clear 55 13 36 2 47 47 N N/A 30.18 1022 10 16 N/A
7:35 pm 19:35 Clear 54 12 37 3 54 54 N N/A 30.21 1023 10 16 N/A
7:55 pm 19:55 Clear 50 10 36 2 58 58 N N/A 30.24 1024 10 16 N/A
8:15 pm 20:15 Clear 50 10 36 2 58 58 NE 3 6 30.24 1024 10 16 N/A
8:35 pm 20:35 Clear 46 8 36 2 66 66 N N/A 30.24 1024 10 16 N/A
9:15 pm 21:15 Clear 45 7 34 1 66 66 N 3 6 30.24 1024 10 16 N/A
9:35 pm 21:35 Clear 45 7 36 2 71 71 N N/A 30.27 1025 10 16 N/A
9:55 pm 21:55 Clear 43 6 34 1 71 71 N N/A 30.27 1025 10 16 N/A
10:15 pm 22:15 Clear 41 5 34 1 76 76 N N/A 30.27 1025 10 16 N/A
10:35 pm 22:35 Clear 41 5 34 1 76 76 N N/A 30.27 1025 10 16 N/A
10:55 pm 22:55 Clear 39 4 34 1 81 81 N N/A 30.27 1025 10 16 N/A
11:15 pm 23:15 Clear 39 4 34 1 81 81 N N/A 30.30 1026 10 16 N/A
11:35 pm 23:35 Clear 36 2 32 undefined 87 87 N N/A 30.30 1026 10 16 N/A
11:55 pm 23:55 Clear 37 3 34 1 87 87 NNW 3 6 30.30 1026 10 16 N/A

Powered by AerisWeather